Terminal Aerodrome Forecast
Issued by NWS

Home | Current Version | Previous Version | Text Only | Print | Product List | Glossary On
Versions: 1 2 3 4 5 6 7 8 9 10 11 12 13 14 15 16 17 18 19 20 21
000
FTUS42 KJAX 060540
TAFCRG
TAF
KCRG 060540Z 0606/0706 25003KT P6SM SCT008 SCT150 BKN250
     FM061300 26008KT P6SM SCT025 SCT250
     FM062000 14010G15KT P6SM VCTS SCT045CB SCT150 BKN250 PROB30
      0621/0624 VRB15G25KT 3SM TSRA BR SCT020 BKN035CB OVC090
     FM070000 18007KT P6SM VCSH SCT030 BKN090 OVC250=

USA.gov is the U.S. government's official web portal to all federal, state and local government web resources and services.